DW3195 Weather Reports


time (UTC)temp
F
wind
direction
speed
knots
gust
knots
rain 1hr
in
rain 24hr
in
rain mn
in
humidity
%
barometer
mb
20260510084504 37 104 0.0 0.9 0.00 0.00 0.00 99 923.5
20260510084004 37 138 0.0 1.7 0.00 0.00 0.00 99 923.4
20260510083505 37 110 0.9 1.7 0.00 0.00 0.00 99 923.4
20260510083005 37 164 0.0 1.7 0.00 0.00 0.00 99 923.3
20260510081505 37 239 0.0 1.7 0.00 0.00 0.00 99 923.2
20260510080505 37 186 0.0 1.7 0.00 0.00 0.00 99 923.2
20260510080004 37 42 0.9 1.7 0.00 0.00 0.00 99 923.2
20260510071505 38 18 0.0 0.9 0.00 0.00 0.00 98 923.0
20260510071005 38 222 0.0 0.9 0.00 0.00 0.00 98 923.0
20260510070004 38 125 0.0 0.9 0.00 0.00 0.00 98 922.9
20260510064504 38 183 0.0 0.9 0.00 0.00 0.00 98 922.9
20260510064004 38 34 0.9 1.7 0.00 0.00 0.00 98 922.9
20260510063004 38 118 0.0 0.9 0.00 0.00 0.00 98 923.0
20260510061505 39 62 0.0 0.9 0.00 0.00 0.00 98 923.0
20260510061004 39 117 0.0 0.9 0.00 0.00 0.00 98 923.0
20260510060504 39 83 0.0 0.9 0.00 0.00 0.00 98 923.0
20260510060006 39 127 0.0 0.9 0.00 0.00 0.00 98 923.0
20260510054504 40 51 0.0 0.9 0.00 0.00 0.00 98 922.9
20260510054004 40 94 0.0 0.9 0.00 0.00 0.00 98 922.9
20260510051504 41 42 0.0 0.9 0.00 0.00 0.00 98 922.9
20260510051004 41 53 0.0 0.9 0.00 0.00 0.00 98 923.0
20260510050504 41 115 0.0 0.9 0.00 0.00 0.00 98 923.0
20260510050005 41 64 0.0 0.9 0.00 0.00 0.00 97 922.9
20260510044505 41 133 0.0 0.9 0.00 0.00 0.00 97 923.0
20260510044006 42 134 0.0 0.9 0.00 0.00 0.00 97 923.0
20260510043506 42 162 0.0 0.0 0.00 0.00 0.00 97 922.9
20260510043006 42 61 0.0 0.9 0.00 0.00 0.00 97 922.9
20260510041505 42 144 0.0 0.9 0.00 0.00 0.00 97 922.8
20260510040505 43 119 0.0 0.9 0.00 0.00 0.00 97 922.9
20260510034505 43 36 0.0 0.9 0.00 0.00 0.00 96 922.8
20260510034006 43 36 0.0 0.9 0.00 0.00 0.00 96 922.8
20260510033506 44 14 0.0 0.9 0.00 0.00 0.00 97 922.8
20260510033006 44 4 0.0 1.7 0.00 0.00 0.00 96 922.8
20260510031505 44 9 0.0 0.9 0.00 0.00 0.00 96 922.8
20260510031005 44 60 0.0 0.9 0.00 0.00 0.00 96 922.8
20260510030506 44 60 0.0 0.9 0.00 0.00 0.00 96 922.8
20260510030005 45 8 0.0 0.9 0.00 0.00 0.00 95 922.8
20260510024505 46 51 0.0 0.9 0.00 0.00 0.00 95 922.8
20260510024005 46 126 0.0 0.9 0.00 0.00 0.00 95 922.8
20260510023506 46 99 0.9 1.7 0.00 0.00 0.00 95 922.8
20260510023007 46 106 0.0 1.7 0.00 0.00 0.00 95 922.9
20260510021506 46 1 0.0 0.9 0.00 0.00 0.00 94 922.6
20260510021005 46 20 0.0 0.9 0.00 0.00 0.00 94 922.5
20260510020505 46 80 0.0 0.9 0.00 0.00 0.00 94 922.5
20260510020005 46 56 0.9 1.7 0.00 0.00 0.00 94 922.5
20260510014505 47 88 0.0 0.9 0.00 0.00 0.00 92 922.1
20260510013505 48 51 0.0 0.0 0.00 0.00 0.00 92 922.0
20260510013005 48 345 0.0 1.7 0.00 0.00 0.00 92 921.9
20260510011505 49 42 0.0 0.9 0.00 0.00 0.00 90 921.7
20260510011006 49 65 0.0 0.9 0.00 0.00 0.00 90 921.6
20260510010506 50 83 0.0 0.9 0.00 0.00 0.00 90 921.5
20260510010005 50 78 0.0 0.9 0.00 0.00 0.00 88 921.4
20260510004504 52 58 0.0 0.9 0.00 0.00 0.00 86 921.1
20260510004005 53 55 0.0 0.9 0.00 0.00 0.00 85 921.1
20260510003505 53 119 0.0 0.9 0.00 0.00 0.00 84 921.1
20260510003005 54 108 0.0 1.7 0.00 0.00 0.00 83 921.0
20260510001504 56 177 0.0 1.7 0.00 0.00 0.00 80 921.0
20260510001005 57 58 0.0 1.7 0.00 0.00 0.00 78 920.9
20260510000505 58 111 0.0 1.7 0.00 0.00 0.00 77 921.0
20260510000005 59 237 0.9 2.6 0.00 0.00 0.00 76 920.9
20260509234504 62 0 0.9 2.6 0.00 0.00 0.00 68 920.7
20260509234005 63 26 0.9 2.6 0.00 0.00 0.00 65 920.5
20260509233005 65 353 1.7 4.3 0.00 0.00 0.00 61 920.4
20260509231505 67 8 1.7 2.6 0.00 0.00 0.00 58 920.3
20260509231005 68 13 1.7 5.2 0.00 0.00 0.00 54 920.3
20260509230505 68 255 0.9 4.3 0.00 0.00 0.00 55 920.2
20260509230005 68 237 1.7 6.1 0.00 0.00 0.00 54 920.3
20260509224504 68 354 1.7 4.3 0.00 0.00 0.00 55 920.4
20260509224006 69 200 1.7 5.2 0.00 0.00 0.00 54 920.3
20260509223504 69 279 2.6 4.3 0.00 0.00 0.00 53 920.4
20260509221504 69 277 5.2 8.7 0.00 0.00 0.00 53 920.5
20260509221005 69 114 1.7 5.2 0.00 0.00 0.00 54 920.5
20260509214505 68 344 2.6 7.0 0.00 0.00 0.00 56 920.4
20260509213504 68 13 2.6 6.1 0.00 0.00 0.00 56 920.4
20260509213005 67 309 2.6 7.8 0.00 0.00 0.00 57 920.4
20260509211505 65 235 2.6 6.1 0.00 0.00 0.00 60 920.5
20260509211004 65 232 1.7 6.1 0.00 0.00 0.00 60 920.4
20260509210505 65 268 2.6 6.1 0.00 0.00 0.00 60 920.3
20260509210004 65 296 2.6 6.1 0.00 0.00 0.00 60 920.3
20260509204504 65 345 2.6 6.1 0.00 0.00 0.00 59 920.3
20260509204004 65 268 3.5 7.0 0.00 0.00 0.00 58 920.3
20260509203504 65 276 3.5 6.1 0.00 0.00 0.00 59 920.2
20260509203005 65 325 2.6 7.0 0.00 0.00 0.00 59 920.3
20260509201504 65 276 2.6 7.8 0.00 0.00 0.00 59 920.1
20260509201005 65 343 2.6 6.1 0.00 0.00 0.00 59 920.1
20260509200504 65 267 2.6 6.1 0.00 0.00 0.00 59 920.0
20260509200004 65 309 2.6 8.7 0.00 0.00 0.00 60 920.0
20260509194506 65 292 2.6 6.1 0.00 0.00 0.00 59 920.0
20260509194005 65 290 2.6 6.1 0.00 0.00 0.00 60 919.9
20260509193506 65 315 2.6 7.0 0.00 0.00 0.00 59 919.9
20260509193005 65 316 3.5 6.1 0.00 0.00 0.00 59 919.9
20260509191505 64 285 4.3 7.0 0.00 0.00 0.00 59 919.9
20260509191006 65 331 3.5 7.8 0.00 0.00 0.00 59 919.9
20260509190506 65 313 2.6 7.8 0.00 0.00 0.00 60 920.0
20260509184005 65 310 3.5 7.0 0.00 0.00 0.00 58 920.0
20260509183506 65 302 4.3 8.7 0.00 0.00 0.00 57 920.0
20260509183005 65 298 4.3 8.7 0.00 0.00 0.00 57 920.0
20260509181506 65 278 3.5 7.8 0.00 0.00 0.00 58 920.1
20260509181005 65 310 5.2 8.7 0.00 0.00 0.00 59 920.1
20260509180505 64 341 5.2 7.8 0.00 0.00 0.00 58 920.1
20260509180005 64 295 3.5 8.7 0.00 0.00 0.00 59 919.9
20260509174507 65 347 3.5 10.4 0.00 0.00 0.00 56 920.1
20260509174006 64 270 4.3 11.3 0.00 0.00 0.00 57 920.1
20260509173506 65 315 4.3 11.3 0.00 0.00 0.00 58 920.0
20260509173005 64 290 2.6 8.7 0.00 0.00 0.00 62 919.9
20260509171505 62 299 3.5 7.8 0.00 0.00 0.00 62 920.1
20260509171006 62 329 4.3 8.7 0.00 0.00 0.00 64 920.2
20260509170505 63 308 4.3 10.4 0.00 0.00 0.00 64 920.5
20260509170005 63 279 4.3 10.4 0.00 0.00 0.00 62 920.4
20260509164005 63 297 5.2 12.2 0.00 0.00 0.00 61 920.5
20260509163505 63 291 2.6 10.4 0.00 0.00 0.00 60 920.6
20260509163005 64 267 4.3 13.0 0.00 0.00 0.00 58 920.6
20260509161505 63 283 4.3 10.4 0.00 0.00 0.00 64 920.4
20260509161006 63 292 3.5 8.7 0.00 0.00 0.00 63 920.4
20260509160506 64 267 5.2 11.3 0.00 0.00 0.00 61 920.4
20260509160006 64 278 7.8 12.2 0.00 0.00 0.00 59 920.6
20260509154505 62 296 4.3 10.4 0.00 0.00 0.00 64 920.6
20260509153505 62 295 5.2 12.2 0.00 0.00 0.00 66 920.4
20260509153005 62 270 4.3 10.4 0.00 0.00 0.00 66 920.2
20260509151505 61 321 5.2 8.7 0.00 0.00 0.00 68 920.2
20260509151005 60 284 2.6 6.1 0.00 0.00 0.00 68 920.3
20260509150505 61 300 2.6 6.1 0.00 0.00 0.00 67 920.5
20260509150005 61 310 2.6 8.7 0.00 0.00 0.00 68 920.5
20260509144005 60 316 2.6 6.1 0.00 0.00 0.00 69 920.2
20260509143505 61 275 3.5 7.8 0.00 0.00 0.00 69 920.3
20260509143005 61 287 2.6 7.8 0.00 0.00 0.00 68 920.5
20260509141505 62 278 3.5 7.0 0.00 0.00 0.00 65 920.1
20260509141004 62 276 2.6 7.0 0.00 0.00 0.00 65 920.0
20260509140505 61 296 2.6 6.1 0.00 0.00 0.00 66 920.2
20260509140005 61 44 1.7 8.7 0.00 0.00 0.00 68 920.1
20260509134005 60 281 1.7 7.0 0.00 0.00 0.00 70 920.2
20260509133504 60 308 2.6 7.8 0.00 0.00 0.00 69 920.2
20260509133005 60 323 1.7 7.8 0.00 0.00 0.00 70 920.2
20260509131505 59 306 1.7 6.1 0.00 0.00 0.00 70 920.1
20260509131004 58 297 2.6 5.2 0.00 0.00 0.00 72 920.1
20260509130505 58 321 1.7 6.1 0.00 0.00 0.00 73 920.0
20260509130005 56 308 1.7 6.1 0.00 0.00 0.00 75 920.0
20260509124505 51 312 1.7 5.2 0.00 0.00 0.00 88 920.4
20260509124004 50 282 0.9 2.6 0.00 0.00 0.00 94 920.5
20260509123505 49 355 0.9 1.7 0.00 0.00 0.00 96 920.5
20260509123005 48 337 0.0 1.7 0.00 0.00 0.00 98 920.6
20260509121504 47 43 0.9 1.7 0.00 0.00 0.00 97 920.8
20260509121004 46 115 0.0 0.9 0.00 0.00 0.00 98 920.7
20260509120504 46 352 0.0 0.9 0.00 0.00 0.00 98 920.9
20260509120005 45 34 0.0 1.7 0.00 0.00 0.00 98 921.0
20260509114504 44 358 0.0 1.7 0.00 0.00 0.00 97 921.0
20260509113504 43 2 0.0 0.9 0.00 0.00 0.00 97 921.1
20260509113004 43 201 0.0 1.7 0.00 0.00 0.00 97 921.0
20260509111505 42 85 0.9 1.7 0.00 0.00 0.00 97 921.0
20260509111005 42 128 0.0 1.7 0.00 0.00 0.00 97 920.9
20260509110004 42 139 1.7 2.6 0.00 0.00 0.00 97 920.7
20260509104504 42 140 1.7 2.6 0.00 0.00 0.00 97 920.7
20260509104006 42 142 1.7 2.6 0.00 0.00 0.00 97 920.7
20260509101505 42 1 0.0 1.7 0.00 0.00 0.00 96 920.4
20260509101006 42 4 0.9 1.7 0.00 0.00 0.00 96 920.4
20260509100505 42 100 0.0 0.9 0.00 0.00 0.00 96 920.2
20260509100006 42 77 0.0 0.9 0.00 0.00 0.00 96 920.2
20260509094505 42 292 0.0 0.9 0.00 0.00 0.00 95 920.2
20260509094006 42 93 0.0 0.9 0.00 0.00 0.00 95 920.2
20260509093506 42 105 0.0 0.9 0.00 0.00 0.00 95 920.2
20260509093005 43 73 0.0 1.7 0.00 0.00 0.00 95 920.4
20260509091505 43 137 0.9 1.7 0.00 0.00 0.00 96 920.5
20260509091005 43 101 0.9 0.9 0.00 0.00 0.00 95 920.6
20260509090505 43 118 0.9 0.9 0.00 0.00 0.00 95 920.6